Fremont, MI

7:40 AM EDT on June 27, 2017 (GMT -0400)
Fremont

Weather History for KFFX - December, 2012

Change the Weather History Date:

Sunday, December 16, 2012

  Actual Average (KMKG) Record (KMKG)
Temperature  
Mean Temperature 42 °F -  
Max Temperature 46 °F 34 °F 58 °F (1984)
Min Temperature 38 °F 24 °F 2 °F (1943)
Degree Days  
Heating Degree Days 23    
Moisture  
Dew Point 43 °F    
Average Humidity 98    
Maximum Humidity 99    
Minimum Humidity 93    
Precipitation  
Precipitation 0.00 in - - ()
Sea Level Pressure  
Sea Level Pressure 29.57 in    
Wind  
Wind Speed 8 mph (SW)    
Max Wind Speed 16 mph    
Max Gust Speed 23 mph    
Visibility 5 miles    
Events Rain    
Averages and records for this station are not official NWS values.
T = Trace of Precipitation, MM = Missing Value Source: NWS Daily Summary

Daily Weather History Graph

Daily Weather History Graph

Search for Another Location

Airport or City:

Trip Planner

Search our weather history database for the weather conditions in past years. The results will help you decide how hot, cold, wet, or windy it might be!

Date:

Astronomy

Dec. 16, 2012 Rise Set
Actual Time 8:10 AM EST 5:08 PM EST
Civil Twilight 7:38 AM EST 5:41 PM EST
Nautical Twilight 7:02 AM EST 6:17 PM EST
Astronomical Twilight 6:27 AM EST 6:52 PM EST
Moon 10:38 AM EST (12/16) 9:28 PM EST (12/16)
Length of Visible Light 10h 03m
Length of Day
8h 58m
Waxing Crescent, 16% of the Moon is Illuminated
Dec 16
Waxing Crescent
Dec 20
First Quarter
Dec 28
Full
Jan 4
Last Quarter
Jan 11
New

Hourly Weather History & Observations

Time (EST) Temp. Windchill Dew Point Humidity Pressure Visibility Wind Dir Wind Speed Gust Speed Precip Events Conditions
12:14 AM 44.6 °F 42.2 °F 44.2 °F 99% 29.55 in 2.5 mi SSE 4.6 mph - N/A   Overcast
12:35 AM 44.8 °F 43.3 °F 44.6 °F 99% 29.55 in 2.5 mi SSE 3.5 mph - N/A   Overcast
12:54 AM 45.0 °F 42.6 °F 44.8 °F 99% 29.55 in 3.0 mi South 4.6 mph - N/A   Overcast
1:14 AM 46.0 °F 41.9 °F 45.7 °F 99% 29.55 in 4.0 mi South 8.1 mph - N/A Rain Rain
1:54 AM 46.4 °F 42.9 °F 45.9 °F 98% 29.55 in 4.0 mi South 6.9 mph - N/A   Overcast
2:15 AM 46.4 °F 42.4 °F 46.0 °F 99% 29.54 in 5.0 mi SSW 8.1 mph - N/A   Overcast
2:34 AM 46.4 °F 42.4 °F 45.9 °F 98% 29.55 in 5.0 mi SSW 8.1 mph - N/A   Overcast
2:55 AM 46.4 °F 41.9 °F 45.9 °F 98% 29.55 in 4.0 mi SSW 9.2 mph - N/A Rain Rain
3:14 AM 46.4 °F 44.3 °F 45.7 °F 97% 29.55 in 4.0 mi SSW 4.6 mph - N/A   Light Drizzle
3:54 AM 46.4 °F 41.9 °F 45.7 °F 97% 29.54 in 4.0 mi South 9.2 mph - N/A   Overcast
4:14 AM 46.4 °F 42.4 °F 45.7 °F 97% 29.54 in 4.0 mi SSW 8.1 mph - N/A   Overcast
4:34 AM 46.0 °F 43.1 °F 45.7 °F 99% 29.54 in 4.0 mi South 5.8 mph - N/A   Overcast
4:54 AM 46.4 °F 43.5 °F 45.9 °F 98% 29.54 in 4.0 mi SSW 5.8 mph - N/A   Overcast
5:15 AM 46.4 °F 44.3 °F 45.9 °F 98% 29.54 in 3.0 mi SSW 4.6 mph - N/A   Overcast
5:34 AM 46.4 °F 43.5 °F 45.9 °F 98% 29.54 in 2.5 mi SSW 5.8 mph - N/A   Overcast
5:54 AM 46.4 °F 41.9 °F 45.9 °F 98% 29.54 in 2.0 mi SSW 9.2 mph - N/A   Overcast
6:14 AM 46.2 °F 42.7 °F 45.9 °F 99% 29.54 in 2.0 mi SSW 6.9 mph - N/A   Drizzle
6:34 AM 46.0 °F 43.9 °F 45.7 °F 99% 29.54 in 2.5 mi South 4.6 mph - N/A Rain Light Rain
6:55 AM 46.0 °F 41.4 °F 45.9 °F 99% 29.54 in 4.0 mi SSW 9.2 mph - N/A Rain Light Rain
7:14 AM 46.0 °F 40.6 °F 45.7 °F 99% 29.54 in 3.0 mi SSW 11.5 mph - N/A   Drizzle
7:34 AM 46.0 °F 40.2 °F 45.7 °F 99% 29.54 in 4.0 mi SSW 12.7 mph 17.3 mph N/A Rain Rain
8:14 AM 46.0 °F 41.4 °F 45.5 °F 98% 29.54 in 5.0 mi SSW 9.2 mph 16.1 mph N/A Rain Rain
8:34 AM 45.9 °F 40.4 °F 45.3 °F 98% 29.55 in 5.0 mi SSW 11.5 mph - N/A   Light Drizzle
8:54 AM 45.7 °F 40.6 °F 45.0 °F 97% 29.55 in 4.0 mi SSW 10.4 mph - N/A   Drizzle
9:15 AM 45.7 °F 39.8 °F 44.8 °F 97% 29.55 in 5.0 mi SSW 12.7 mph 17.3 mph N/A   Overcast
9:34 AM 45.5 °F 41.3 °F 44.6 °F 97% 29.55 in 5.0 mi SSW 8.1 mph - N/A   Overcast
9:54 AM 45.5 °F 39.2 °F 44.2 °F 95% 29.56 in 7.0 mi SSW 13.8 mph - N/A   Overcast
10:14 AM 45.5 °F 39.6 °F 43.9 °F 94% 29.56 in 7.0 mi SSW 12.7 mph - N/A   Overcast
10:34 AM 45.5 °F 39.2 °F 43.7 °F 93% 29.56 in 10.0 mi SSW 13.8 mph - N/A   Overcast
10:54 AM 45.0 °F 38.9 °F 43.7 °F 95% 29.57 in 7.0 mi SSW 12.7 mph 16.1 mph N/A   Drizzle
11:14 AM 44.6 °F 38.8 °F 43.2 °F 95% 29.57 in 7.0 mi SSW 11.5 mph - N/A   Light Drizzle
11:35 AM 44.6 °F 38.8 °F 43.0 °F 94% 29.57 in 7.0 mi SSW 11.5 mph - N/A Rain Light Rain
11:54 AM 44.1 °F 37.7 °F 42.8 °F 95% 29.56 in 5.0 mi SSW 12.7 mph 19.6 mph N/A   Overcast
12:14 PM 44.1 °F 36.8 °F 42.8 °F 95% 29.55 in 7.0 mi SSW 16.1 mph 23.0 mph N/A   Overcast
12:34 PM 43.9 °F 37.9 °F 42.8 °F 96% 29.55 in 5.0 mi SSW 11.5 mph - N/A   Light Drizzle
12:54 PM 43.7 °F 38.1 °F 42.8 °F 97% 29.55 in 5.0 mi SW 10.4 mph - N/A   Light Drizzle
1:15 PM 43.3 °F 37.2 °F 42.4 °F 97% 29.55 in 7.0 mi SW 11.5 mph - N/A   Overcast
1:34 PM 43.2 °F 38.4 °F 42.8 °F 99% 29.54 in 2.0 mi SSW 8.1 mph - N/A   Overcast
1:54 PM 43.0 °F 37.2 °F 42.6 °F 99% 29.55 in 1.2 mi SSW 10.4 mph - N/A   Overcast
2:14 PM 42.8 °F 37.5 °F 42.6 °F 99% 29.54 in 1.0 mi SW 9.2 mph - N/A Rain Light Rain
2:34 PM 42.8 °F 37.5 °F 42.4 °F 99% 29.55 in 1.2 mi SSW 9.2 mph - N/A Rain Light Rain
2:55 PM 42.8 °F 37.5 °F 42.4 °F 99% 29.54 in 1.2 mi SSW 9.2 mph - N/A Rain Light Rain
3:14 PM 42.8 °F 37.5 °F 42.3 °F 98% 29.55 in 1.2 mi SSW 9.2 mph - N/A Rain Rain
3:34 PM 42.8 °F 37.5 °F 42.3 °F 98% 29.55 in 1.2 mi SSW 9.2 mph - N/A   Drizzle
3:55 PM 42.8 °F 38.0 °F 42.4 °F 99% 29.55 in 1.8 mi SW 8.1 mph - N/A Rain Rain
4:14 PM 42.6 °F 38.4 °F 42.3 °F 99% 29.56 in 2.5 mi SW 6.9 mph - N/A Rain Rain
4:34 PM 42.3 °F 35.1 °F 41.7 °F 98% 29.57 in 2.5 mi SW 13.8 mph 17.3 mph N/A Rain Light Rain
5:14 PM 41.5 °F 35.9 °F 41.0 °F 98% 29.57 in 4.0 mi WSW 9.2 mph - N/A Rain Light Rain
5:34 PM 41.4 °F 37.6 °F 41.0 °F 99% 29.58 in 4.0 mi SW 5.8 mph - N/A   Overcast
5:54 PM 41.2 °F 36.6 °F 40.6 °F 98% 29.59 in 5.0 mi SW 6.9 mph - N/A   Overcast
6:15 PM 41.0 °F 35.2 °F 40.3 °F 97% 29.60 in 5.0 mi SW 9.2 mph - N/A   Overcast
6:34 PM 41.0 °F 38.0 °F 40.1 °F 97% 29.60 in 3.0 mi SW 4.6 mph - N/A   Overcast
6:54 PM 40.6 °F 36.7 °F 40.1 °F 98% 29.60 in 3.0 mi SW 5.8 mph - N/A   Overcast
7:15 PM 40.5 °F 37.3 °F 40.1 °F 99% 29.61 in 5.0 mi WSW 4.6 mph - N/A   Overcast
7:34 PM 40.5 °F 35.8 °F 40.1 °F 99% 29.61 in 4.0 mi West 6.9 mph - N/A   Overcast
7:54 PM 40.3 °F 34.9 °F 39.7 °F 98% 29.61 in 4.0 mi West 8.1 mph - N/A   Overcast
8:14 PM 40.1 °F 34.7 °F 39.2 °F 97% 29.61 in 10.0 mi West 8.1 mph - N/A   Overcast
8:34 PM 39.7 °F 34.3 °F 38.8 °F 97% 29.62 in 10.0 mi West 8.1 mph - N/A   Overcast
8:55 PM 39.4 °F 33.8 °F 38.3 °F 96% 29.63 in 10.0 mi WSW 8.1 mph - N/A   Overcast
9:14 PM 39.2 °F 33.6 °F 38.3 °F 97% 29.63 in 7.0 mi WSW 8.1 mph - N/A   Drizzle
9:34 PM 39.0 °F 34.0 °F 38.3 °F 97% 29.64 in 5.0 mi WSW 6.9 mph - N/A   Drizzle
9:54 PM 38.7 °F 32.9 °F 38.3 °F 99% 29.64 in 5.0 mi SW 8.1 mph - N/A   Drizzle
10:15 PM 38.7 °F 35.2 °F 38.3 °F 99% 29.64 in 7.0 mi WSW 4.6 mph - N/A   Light Drizzle
10:34 PM 38.7 °F 34.3 °F 37.9 °F 97% 29.64 in 10.0 mi SW 5.8 mph - N/A   Overcast
10:55 PM 38.5 °F 33.4 °F 37.8 °F 97% 29.65 in 10.0 mi WSW 6.9 mph - N/A   Overcast
11:14 PM 38.5 °F 34.1 °F 37.6 °F 97% 29.65 in 10.0 mi SW 5.8 mph - N/A   Overcast
11:34 PM 38.3 °F 33.9 °F 37.4 °F 97% 29.65 in 10.0 mi SW 5.8 mph - N/A   Overcast
11:54 PM 38.3 °F 34.8 °F 37.4 °F 97% 29.65 in 10.0 mi WSW 4.6 mph - N/A   Overcast